www.pogodaiklimat.ru

Погода и климат >> Архив погоды >> Россия >> Забайкальский край >> Средняя Олекма


ПОГОДА в Средней Олекме

  • Прогноз погоды в Средней Олекме
  • Монитор погоды в Средней Олекме

АРХИВ ПОГОДЫ в Средней Олекме

Время (UTC), дата Ветер
(напр.,м/с)
 
Видим.   Явления Облачность Т
(С)
Тd
(С)
f
(%)
Тe
(С)
Тes
(С)
Комфортность P
(гПа)
Po
(гПа)
Тmin
(С)
Tmax
(С)
R
(мм)
R24
(мм)
S
(см)
09 15.02 штиль 0 50 км 10/0
[As op]
-7.8 -15.7 53 -8 -8 1021.4 954.7
12 15.02 штиль 0 н/о 10/0
[As op]
-15.5 -22.5 55 -16 -16 1021.8 953.0 -7.7
15 15.02 штиль 0 н/о 10/0
[As op]
-19.2 -21.8 80 -19 -19 1022.4 952.7
18 15.02 штиль 0 н/о 10/0
[As op]
-21.7 -22.9 90 -22 -22 1022.6 952.2
00 16.02 штиль 0 50 км 10/0
[As op]
-20.3 -10.9 100 -20 -20 1020.5 950.6 -23.4 25
03 16.02 Ю 1 50 км 10 баллов -15.3 -17.2 85 -18 -18 1019.1 950.7
06 16.02 штиль 0 50 км 10/0
[As op]
-12.3 -18.4 60 -12 -12 1015.4 948.0
09 16.02 штиль 0 50 км 10 баллов -7.2 -13.0 63 -8 -8 1014.1 948.0
12 16.02 штиль 0 н/о 10/0
[Ac trans Ci sp]
-13.3 -18.5 65 -13 -13 1015.3 947.6 -6.4
15 16.02 штиль 0 н/о 10 баллов -16.8 -20.2 75 -17 -17 1016.7 948.0
18 16.02 штиль 0 н/о 10/0
[Ci sp]
-22.0 -22.6 95 -22 -22 1018.1 948.0
21 16.02 штиль 0 н/о 10 баллов -24.8 -25.4 95 -25 -25 1020.3 949.3
00 17.02 штиль 0 50 км 10/0
[Ci sp]
-24.6 -25.3 94 -25 -24 1019.3 948.4 -24.8 25
06 17.02 штиль 0 50 км 10/0
[Ci sp]
-7.9 -15.8 53 -8 -8 1015.7 949.3
09 17.02 штиль 0 50 км 10 баллов -5.6 -15.6 45 -6 -6 1012.3 946.7
12 17.02 штиль 0 н/о 10/0
[As trans]
-11.5 -17.7 60 -12 -12 1012.4 945.3 -5.5
15 17.02 штиль 0 н/о 10 баллов -15.4 -18.1 80 -15 -15 1013.4 945.3
18 17.02 штиль 0 н/о 10/0
[Ac trans Ci sp]
-18.2 -19.4 90 -18 -18 1012.7 944.0
21 17.02 штиль 0 н/о 10 баллов -18.0 -19.2 90 -18 -18 1012.7 944.0
00 18.02 штиль 0 50 км 10/0
[Ac trans Ci sp]
-18.5 -19.1 95 -19 -18 1012.6 943.5 -18.5 25
03 18.02 штиль 0 50 км 10 баллов -13.5 -16.3 79 -14 -14 1014.3 946.7
06 18.02 штиль 0 50 км 10/0
[Ci fib]
-3.2 -13.2 46 1011.0
09 18.02 штиль 0 50 км 10 баллов -5.0 -15.9 42 -5 -5 1013.5 948.0
12 18.02 штиль 0 н/о 10/0
[Ac trans Ci sp]
-12.9 -19.6 57 -13 -13 1015.4 947.7 -3.0
15 18.02 штиль 0 н/о 10/0
[Ci fib]
-19.8 -22.9 76 -20 -20 1020.4 950.7
18 18.02 штиль 0 н/о ясно -19.8 -22.9 76 -20 -20 1020.4 950.7
21 18.02 штиль 0 н/о ясно -25.5 -26.1 95 -26 -26 1024.8 953.3
00 19.02 штиль 0 50 км 10/0
[Ci fib]
-28.3 -28.8 95 -28 -28 1025.8 953.4 -28.3 25
03 19.02 Ю 3 50 км 10/0
[Ac trans Ci sp]
-21.5 -23.3 85 -29 -29 1025.2 954.7
06 19.02 штиль 0 50 км 10/0
[Ac lent Ci sp]
-10.5 -17.8 55 -11 -11 1019.2 952.0
09 19.02 штиль 0 50 км 10/0
[As op]
-10.3 -17.6 55 -10 -10 1017.8 950.7
12 19.02 штиль 0 н/о 10/0
[As op]
-11.1 -17.3 60 -11 -11 1015.4 948.2 -10.2
15 19.02 штиль 0 н/о 10 баллов -13.8 -18.1 70 -14 -14 1017.2 949.3
18 19.02 штиль 0 н/о 10 баллов -16.4 -18.3 85 -16 -16 1017.9 949.3
21 19.02 штиль 0 н/о 10 баллов -16.8 -18.0 90 -17 -17 1018.0 949.3
00 20.02 штиль 0 50 км 10/0
[As op]
-16.5 -17.8 90 -17 -16 1019.6 950.7 -16.8 25
03 20.02 штиль 0 50 км 10 баллов -10.6 -15.0 70 -11 -11 1020.6 953.3
06 20.02 Ю 2 50 км 10 баллов -2.3 -12.6 45 -5 -5 1017.1 952.0
09 20.02 штиль 0 50 км 10 баллов -2.5 -12.8 45 -3 -3 1018.6 953.3
12 20.02 штиль 0 н/о 10/0
[Ci sp]
-10.8 -16.1 65 -11 -11 1020.7 953.3 -2.2
15 20.02 штиль 0 н/о 10 баллов -14.7 -16.7 85 -15 -15 1023.2 954.7
18 20.02 штиль 0 н/о 10 баллов -16.4 -18.3 85 -16 -16 1023.7 954.7
21 20.02 штиль 0 н/о 10 баллов -18.3 -19.5 90 -18 -18 1024.3 954.7
00 21.02 штиль 0 50 км 10/0
[Ac lent Ci sp]
-19.8 -19.8 100 -20 -20 1024.9 954.7 -19.8 25
03 21.02 ЮЗ 3 50 км 10 баллов -14.4 -16.4 85 -21 -21 1024.6 956.0
06 21.02 штиль 0 50 км 10 баллов -7.2 -12.5 66 -8 -8 1021.2 954.7
09 21.02 штиль 0 50 км 10 баллов -7.4 -13.8 60 -8 -8 1019.8 953.3
12 21.02 штиль 0 н/о 10/0
[Ci sp]
-12.5 -16.8 70 -13 -13 1021.3 953.4 -7.1
15 21.02 штиль 0 н/о 10 баллов -16.0 -17.9 85 -16 -16 1025.0 956.0
18 21.02 штиль 0 н/о 10 баллов -20.2 -20.2 100 -20 -20 1027.6 957.3
21 21.02 штиль 0 н/о ясно -24.7 -24.7 100 -25 -25 1028.9 957.3
00 22.02 штиль 0 50 км 10/0
[Ci sp]
-25.6 -25.7 99 -26 -25 1030.9 958.8 -25.7 25
03 22.02 штиль 0 50 км 10 баллов -17.4 -19.3 85 -17 -17 1029.7 960.0
06 22.02 С 1 50 км 10 баллов -7.1 -12.9 63 -9 -9 1025.5 958.7

 

Местоположение метеостанции Средняя Олекма (Забайкальский край, Россия): широта 55.43 долгота 120.50 высота над уровнем моря 528 м.

В архиве по умолчанию представлена погода в Средней Олекме за последнюю неделю. Архивные данные за месяц целиком и за предыдущие месяцы, начиная с января 2011 года, Вы можете получить, выбрав интересующий диапазон дат из раскрывающегося списка и нажав кнопку "Ввод!".


*Определитесь, кто Вы:
робот инопланетянин человек

Внимание! Время в таблицах - всемирное. Для получения местного времени необходимо прибавить поправку, которая равна 9 ч.

Смотрите также архив погоды в соседних городах и на ближайших метеорологических станциях:

Погода в Тупике (Забайкальский край, Россия) (118 км)
Погода в Усть-Нюкже (Амурская область, Россия) (142 км)
Погода в Лопче (Амурская область, Россия) (143 км)
Погода в Амазаре (Забайкальский край, Россия) (175 км)
Погода в Ерофей Павловиче (Амурская область, Россия) (186 км)
Погода в Могоче (Забайкальский край, Россия) (194 км)
Погода в Удокане (Забайкальский край, Россия) (200 км)
Погода в Чаре (Забайкальский край, Россия) (217 км)
Погода в Большой Лепринде (Забайкальский край, Россия) (226 км)
Погода в Ксеньевской (Забайкальский край, Россия) (239 км)

Пояснения к столбцам:

Ветер - указаны скорость ветра в м/с - средняя за 10 мин, порывы в срок и между сроками (в фигурных скобках) и направление, откуда дует ветер: С - северный, СВ - северо-восточный, В - восточный, ЮВ - юго-восточный, Ю - южный, ЮЗ - юго-западный, З - западный, СЗ - северо-западный.
Видимость - горизонтальная дальность видимости в метрах или километрах. При видимости от 1 до 10 км при отсутствии осадков обычно наблюдается дымка, при ухудшении видимости до 1 км и менее - туман. В сухую погоду видимость может ухудшаться дымом, пылью или мглою.
Явления - указаны атмосферные явления, наблюдавшиеся в срок или в последний час перед сроком; фигурными скобками обозначены явления, наблюдавшиеся между сроками (за 1-3 часа до срока); квадратными скобками обозначены град или гололедные отложения с указанием их диаметра в мм.
Облачность - указаны через наклонную черту общая и нижняя облачность в баллах и высота нижней границы облаков в метрах; квадратными скобками обозначены формы облаков: Ci - перистые, Cs - перисто-слоистые, Cc - перисто-кучевые, Ac - высококучевые, As - высокослоистые, Sc - слоисто-кучевые, Ns - слоисто-дождевые, Cu - кучевые, Cb - кучево-дождевые. Подробнее классификацию облаков см. в Атласе облаков (PDF).
T - Температура воздуха - температура, измеренная на высоте 2 м над землей.
Td - Температура точки росы - температура, при понижении до которой содержащийся в воздухе водяной пар достигнет насыщения.
f - Относительная влажность воздуха - влажноcть воздуха, измеренная на высоте 2 м над землей.
Te - Эффективная температура - температура, которую ощущает одетый по сезону человек в тени. Характеристика душности погоды. При расчете учитывается влияние влажности воздуха и скорости ветра на теплоощущения человека.
Tes - Эффективная температура на солнце - температура, которую ощущает человек, с поправкой на солнечный нагрев. Характеристика знойности погоды. Зависит от высоты солнца над горизонтом, облачности и скорости ветра. Ночью, в пасмурную погоду, а также при ветре 12 м/с и более поправка равна нулю.
P - Атмосферное давление - приведенное к уровню моря атмосферное давление.
Po - Атмосферное давление - измеренное на уровне метеостанции атмосферное давление.
Tmin - Минимальная температура - минимум температуры воздуха на высоте 2 м над землей.
Tmax - Максимальная температура - максимум температуры воздуха на высоте 2 м над землей.
R - Количество осадков - Количество выпавших осадков за период времени, мм. При наведении курсора мыши на число - период времени, за который выпало указанное количество осадков.
R24 - Количество осадков - Количество выпавших осадков за 24 часа, мм.
S - Снежный покров - Высота снежного покрова, см. При наведении курсора мыши на число - состояние снежного покрова и степень покрытия местности в баллах.